Location: Chena
(64.8152°N, 147.9227°W)
Time: 20:00:23
(UTC+00:00)

A-11 Canister half - Visible Passes

Search period start: 04 March 2021 00:00
Search period end: 14 March 2021 00:00
Orbit: 1525 x 1684 km, 47.3° (Epoch: 03 March)

Date Brightness Start Highest point End Pass type
(mag) Time Alt. Az. Time Alt. Az. Time Alt. Az.
04 Mar 10.6 14:29:12 10° SSW 14:35:41 21° SSE 14:42:03 10° ESE visible
05 Mar 10.6 14:07:44 10° SSW 14:14:08 20° SSE 14:20:27 10° ESE visible
06 Mar 10.5 13:46:16 10° SSW 13:52:36 20° SSE 13:58:49 10° ESE visible
06 Mar 10.3 15:47:39 10° SW 15:55:04 27° S 16:02:21 10° SE visible
07 Mar 10.5 13:25:36 12° S 13:31:04 20° SSE 13:37:12 10° ESE visible
07 Mar 10.3 15:26:05 10° SW 15:33:31 27° S 15:40:49 10° ESE visible
08 Mar 10.5 13:05:02 14° S 13:09:31 19° SSE 13:15:35 10° ESE visible
08 Mar 10.3 15:04:31 10° SW 15:11:58 26° S 15:19:15 10° ESE visible
09 Mar 10.4 12:44:25 15° S 12:47:59 19° SSE 12:53:57 10° ESE visible
09 Mar 10.2 14:42:57 10° SW 14:50:24 26° S 14:57:42 10° ESE visible
10 Mar 10.4 12:23:47 16° SSE 12:26:27 18° SSE 12:32:18 10° ESE visible
10 Mar 10.2 14:22:04 12° SW 14:28:51 26° S 14:36:08 10° ESE visible
11 Mar 10.4 12:03:07 17° SSE 12:04:55 18° SSE 12:10:40 10° ESE visible
11 Mar 10.1 14:01:24 14° SW 14:07:18 26° S 14:14:35 10° ESE visible
12 Mar 10.4 11:42:26 17° SSE 11:43:23 17° SE 11:49:00 10° ESE visible
12 Mar 10.1 13:40:43 17° SSW 13:45:44 26° S 13:53:01 10° ESE visible
13 Mar 10.4 11:21:44 17° SE 11:21:50 17° SE 11:27:21 10° ESE visible
13 Mar 10.1 13:20:00 19° SSW 13:24:10 26° S 13:31:28 10° ESE visible
13 Mar 10.2 15:19:30 10° WSW 15:26:48 25° SSW 15:33:57 10° SE visible
